Weather History for Traverse City, MI

Change the Weather History Date:

Friday, March 22, 2013

  Actual Average Record
Temperature  
Mean Temperature 25 °F 33 °F  
Max Temperature 32 °F 42 °F 76 °F (2012)
Min Temperature 18 °F 24 °F -2 °F (1989)
Degree Days  
Heating Degree Days 40 32  
Month to date heating degree days 842 792  
Since 1 July heating degree days 5688 6132  
Cooling Degree Days 0 0  
Month to date cooling degree days 0 0  
Year to date cooling degree days 0 0  
Moisture  
Dew Point 20 °F    
Average Humidity 72    
Maximum Humidity 81    
Minimum Humidity 63    
Precipitation  
Precipitation T in 0.06 in 1.35 in (1975)
Month to date precipitation 1.44 1.26  
Year to date precipitation 4.98 5.58  
Snow  
Snow 0.00 in - - ()
Snow Depth 7.00 in    
Sea Level Pressure  
Sea Level Pressure 29.99 in    
Wind  
Wind Speed 8 mph (WNW)    
Max Wind Speed 14 mph    
Max Gust Speed 17 mph    
Visibility 10 miles    
Events Snow    
T = Trace of Precipitation, MM = Missing Value Source: NWS Daily Summary

Daily Weather History Graph

Daily Weather History Graph

Search for Another Location

Airport:

Trip Planner

Search our weather history database for the weather conditions in past years. The results will help you decide how hot, cold, wet, or windy it might be!

Date:

Astronomy

Mar. 22, 2013 Rise Set
Actual Time 7:41 AM EDT 7:57 PM EDT
Civil Twilight 7:12 AM EDT 8:26 PM EDT
Nautical Twilight 6:37 AM EDT 9:01 PM EDT
Astronomical Twilight 6:02 AM EDT 9:36 PM EDT
Moon 3:14 PM EDT (3/22) 4:51 AM EDT (3/22)
Length of Visible Light 13h 14m
Length of Day
12h 16m
Waxing Gibbous, 77% of the Moon is Illuminated
Mar 22
Waxing Gibbous
Mar 27
Full
Apr 3
Last Quarter
Apr 10
New
Apr 18
First Quarter

Hourly Weather History & Observations

Time (EDT) Temp. Windchill Dew Point Humidity Pressure Visibility Wind Dir Wind Speed Gust Speed Precip Events Conditions
12:53 AM 26.1 °F 14.5 °F 16.0 °F 66% 29.97 in 10.0 mi NNW 13.8 mph - N/A   Overcast
1:53 AM 26.1 °F 16.2 °F 17.1 °F 69% 29.97 in 10.0 mi NW 10.4 mph - N/A   Overcast
2:53 AM 25.0 °F 16.3 °F 17.1 °F 72% 29.97 in 10.0 mi West 8.1 mph - N/A   Overcast
3:53 AM 25.0 °F 17.1 °F 17.1 °F 72% 29.96 in 10.0 mi West 6.9 mph - N/A   Overcast
4:49 AM 23.0 °F 13.1 °F 15.8 °F 74% 29.93 in 10.0 mi West 9.2 mph - N/A   Scattered Clouds
4:53 AM 21.9 °F 11.7 °F 16.0 °F 78% 29.96 in 10.0 mi West 9.2 mph - N/A   Partly Cloudy
5:53 AM 18.0 °F 12.7 °F 12.9 °F 81% 29.96 in 10.0 mi WSW 3.5 mph - N/A   Clear
6:53 AM 21.0 °F 12.4 °F 16.0 °F 81% 29.96 in 10.0 mi West 6.9 mph - N/A   Scattered Clouds
7:29 AM 23.0 °F 13.9 °F 17.6 °F 80% 29.95 in 10.0 mi West 8.1 mph - N/A   Overcast
7:53 AM 25.0 °F 18.1 °F 19.9 °F 81% 29.98 in 10.0 mi WSW 5.8 mph - N/A   Overcast
8:53 AM 26.1 °F 17.6 °F 19.9 °F 78% 29.98 in 10.0 mi West 8.1 mph - N/A   Overcast
9:53 AM 28.0 °F 18.6 °F 21.9 °F 78% 29.98 in 10.0 mi West 10.4 mph - 0.00 in Snow Light Snow
10:03 AM 28.4 °F 20.4 °F 21.2 °F 74% 29.95 in 9.0 mi West 8.1 mph - 0.00 in Snow Light Snow
10:53 AM 28.9 °F 23.9 °F 23.0 °F 78% 29.98 in 9.0 mi WNW 4.6 mph - 0.00 in Snow Light Snow
11:53 AM 30.9 °F 22.8 °F 23.0 °F 72% 29.98 in 9.0 mi WNW 9.2 mph - 0.00 in Snow Light Snow
12:53 PM 32.0 °F 25.6 °F 23.0 °F 69% 29.98 in 10.0 mi NNW 6.9 mph - 0.00 in   Overcast
1:53 PM 32.0 °F 24.2 °F 23.0 °F 69% 29.99 in 10.0 mi NNW 9.2 mph - N/A   Overcast
2:53 PM 32.0 °F 24.8 °F 24.1 °F 73% 29.99 in 10.0 mi NNW 8.1 mph - N/A   Overcast
3:53 PM 30.9 °F 22.8 °F 24.1 °F 76% 30.00 in 10.0 mi North 9.2 mph - N/A   Overcast
4:53 PM 30.9 °F 22.2 °F 24.1 °F 76% 30.00 in 10.0 mi NNW 10.4 mph - N/A   Overcast
5:53 PM 32.0 °F 26.4 °F 21.9 °F 66% 30.00 in 10.0 mi NNW 5.8 mph - N/A   Overcast
6:53 PM 30.9 °F 26.2 °F 21.9 °F 69% 30.01 in 10.0 mi NNW 4.6 mph - N/A   Overcast
7:53 PM 30.9 °F 24.3 °F 23.0 °F 72% 30.03 in 10.0 mi NW 6.9 mph - N/A   Overcast
8:53 PM 30.9 °F 25.2 °F 23.0 °F 72% 30.04 in 10.0 mi WNW 5.8 mph - N/A   Overcast
9:53 PM 32.0 °F 25.6 °F 21.9 °F 66% 30.05 in 10.0 mi NW 6.9 mph - N/A   Overcast
10:53 PM 32.0 °F 26.4 °F 21.0 °F 64% 30.05 in 10.0 mi North 5.8 mph - N/A   Overcast
11:53 PM 30.9 °F 21.7 °F 24.1 °F 76% 30.06 in 10.0 mi North 11.5 mph - N/A   Overcast